Fremont, MI

1:31 PM EST on November 12, 2019 (GMT -0500)
Fremont

Weather History for KFFX - September, 2019

Change the Weather History Date:

Wednesday, September 25, 2019

  Actual Average (WUND) Record (WUND)
Temperature  
Mean Temperature 68 °F -  
Max Temperature 75 °F - - (-1)
Min Temperature 61 °F - - (-1)
Cooling Degree Days 3    
Growing Degree Days 18 (Base 50)    
Moisture  
Dew Point 52 °F    
Average Humidity 55    
Maximum Humidity 67    
Minimum Humidity 36    
Precipitation  
Precipitation 0.00 in - - ()
Sea Level Pressure  
Sea Level Pressure 29.70 in    
Wind  
Wind Speed 12 mph ()    
Max Wind Speed 20 mph    
Max Gust Speed 30 mph    
Visibility 10.0 miles    
Events Rain    
Averages and records for this station are not official NWS values.
T = Trace of Precipitation, MM = Missing Value Source: Averaged Metar Reports

Daily Weather History Graph

Daily Weather History Graph

Search for Another Location

Airport or City:

Astronomy

Sep. 25, 2019 Rise Set
Actual Time 7:34 AM EDT 7:36 PM EDT
Civil Twilight 7:05 AM EDT 8:04 PM EDT
Nautical Twilight 6:32 AM EDT 8:37 PM EDT
Astronomical Twilight 5:58 AM EDT 9:11 PM EDT
Moon 3:17 AM EDT (9/25) 6:16 PM EDT (9/25)
Length of Visible Light 12h 58m
Length of Day
12h 01m
Waning Crescent, 14% of the Moon is Illuminated
Sep 25
Waning Crescent
Sep 28
New
Oct 5
First Quarter
Oct 13
Full
Oct 21
Last Quarter

Hourly Weather History & Observations

Time (EDT) Temp. Dew Point Humidity Pressure Visibility Wind Dir Wind Speed Gust Speed Precip Events Conditions
12:15 AM 68.5 °F 53.1 °F 58% 29.75 in 10.0 mi SSW 12.7 mph - N/A   Clear
12:35 AM 69.1 °F 52.7 °F 56% 29.75 in 10.0 mi SSW 12.7 mph 20.7 mph N/A   Clear
12:36 AM 69.1 °F 52.7 °F 56% 29.75 in 10.0 mi SSW 11.5 mph 20.7 mph N/A   Clear
12:59 AM 69.1 °F 52.7 °F 56% 29.75 in 10.0 mi SW 13.8 mph 18.4 mph N/A   Clear
1:17 AM 68.9 °F 52.5 °F 56% 29.76 in 10.0 mi SSW 12.7 mph 23.0 mph N/A   Clear
1:35 AM 68.9 °F 52.7 °F 56% 29.75 in 10.0 mi SSW 16.1 mph 21.9 mph N/A   Clear
1:55 AM 68.9 °F 52.3 °F 55% 29.75 in 10.0 mi SSW 11.5 mph 24.2 mph N/A   Clear
1:56 AM 68.9 °F 52.5 °F 56% 29.75 in 10.0 mi SSW 12.7 mph 24.2 mph N/A   Clear
2:15 AM 68.4 °F 52.9 °F 58% 29.74 in 10.0 mi SW 15.0 mph 20.7 mph N/A   Clear
2:20 AM 68.4 °F 52.9 °F 58% 29.74 in 10.0 mi SSW 13.8 mph 20.7 mph N/A   Clear
2:38 AM 68.0 °F 52.9 °F 58% 29.73 in 10.0 mi SW 12.7 mph 20.7 mph N/A   Clear
2:56 AM 67.8 °F 53.2 °F 60% 29.73 in 10.0 mi SW 15.0 mph 25.3 mph N/A   Clear
3:15 AM 67.5 °F 53.2 °F 60% 29.72 in 10.0 mi SW 15.0 mph 21.9 mph N/A   Clear
3:16 AM 67.5 °F 53.1 °F 60% 29.72 in 10.0 mi SW 16.1 mph 21.9 mph N/A   Clear
3:35 AM 67.3 °F 53.2 °F 61% 29.72 in 10.0 mi SW 13.8 mph 24.2 mph N/A   Clear
3:59 AM 67.8 °F 52.7 °F 58% 29.72 in 10.0 mi SW 15.0 mph 24.2 mph N/A   Scattered Clouds
4:17 AM 67.8 °F 52.7 °F 58% 29.72 in 10.0 mi SW 12.7 mph 23.0 mph N/A   Scattered Clouds
4:35 AM 67.6 °F 52.5 °F 58% 29.71 in 10.0 mi SW 18.4 mph 27.6 mph N/A   Scattered Clouds
4:36 AM 67.6 °F 52.3 °F 58% 29.71 in 10.0 mi SW 18.4 mph 27.6 mph N/A   Scattered Clouds
4:55 AM 67.6 °F 52.2 °F 58% 29.70 in 10.0 mi SSW 15.0 mph - N/A   Scattered Clouds
4:56 AM 67.6 °F 52.2 °F 58% 29.70 in 10.0 mi SSW 17.3 mph 23.0 mph N/A   Scattered Clouds
5:15 AM 67.5 °F 51.6 °F 57% 29.68 in 10.0 mi SSW 15.0 mph 24.2 mph N/A   Scattered Clouds
5:20 AM 67.8 °F 51.4 °F 56% 29.68 in 10.0 mi SSW 16.1 mph 24.2 mph N/A   Scattered Clouds
5:38 AM 68.2 °F 51.4 °F 55% 29.67 in 10.0 mi SW 12.7 mph 23.0 mph N/A   Mostly Cloudy
5:56 AM 68.9 °F 50.2 °F 51% 29.66 in 10.0 mi SSW 19.6 mph 26.5 mph N/A   Overcast
6:15 AM 68.7 °F 50.2 °F 52% 29.66 in 10.0 mi SSW 18.4 mph 28.8 mph N/A   Overcast
6:35 AM 68.9 °F 50.9 °F 53% 29.66 in 10.0 mi SSW 13.8 mph 26.5 mph N/A   Overcast
6:36 AM 68.7 °F 50.9 °F 53% 29.66 in 10.0 mi SSW 15.0 mph 26.5 mph N/A   Overcast
6:59 AM 68.4 °F 51.3 °F 54% 29.66 in 10.0 mi SSW 18.4 mph 28.8 mph N/A   Overcast
7:17 AM 68.2 °F 51.4 °F 55% 29.66 in 10.0 mi SSW 16.1 mph 24.2 mph N/A   Overcast
7:35 AM 68.4 °F 51.3 °F 54% 29.66 in 10.0 mi SSW 17.3 mph 27.6 mph N/A   Overcast
7:36 AM 68.4 °F 51.3 °F 54% 29.66 in 10.0 mi SSW 17.3 mph 27.6 mph N/A   Overcast
7:55 AM 68.5 °F 51.1 °F 54% 29.66 in 10.0 mi SW 18.4 mph 24.2 mph N/A   Overcast
8:15 AM 68.4 °F 50.9 °F 54% 29.66 in 10.0 mi SW 16.1 mph 25.3 mph N/A   Overcast
8:38 AM 68.2 °F 50.9 °F 54% 29.66 in 10.0 mi SW 13.8 mph 20.7 mph N/A   Overcast
8:56 AM 68.0 °F 50.9 °F 54% 29.66 in 10.0 mi SW 18.4 mph 21.9 mph N/A   Overcast
9:15 AM 68.4 °F 51.8 °F 55% 29.66 in 10.0 mi SW 16.1 mph 25.3 mph N/A   Overcast
9:16 AM 68.4 °F 51.8 °F 55% 29.66 in 10.0 mi SW 15.0 mph 25.3 mph N/A   Overcast
9:35 AM 68.2 °F 52.9 °F 58% 29.66 in 10.0 mi SW 18.4 mph 26.5 mph N/A   Overcast
9:59 AM 67.3 °F 53.6 °F 61% 29.67 in 10.0 mi SW 18.4 mph 29.9 mph N/A   Overcast
10:17 AM 67.1 °F 53.6 °F 62% 29.67 in 10.0 mi SW 13.8 mph 24.2 mph N/A   Overcast
10:36 AM 68.0 °F 54.5 °F 62% 29.67 in 10.0 mi SW 13.8 mph 18.4 mph N/A   Overcast
10:55 AM 67.3 °F 54.5 °F 63% 29.67 in 10.0 mi WSW 13.8 mph 24.2 mph N/A   Overcast
11:15 AM 67.3 °F 54.7 °F 64% 29.68 in 10.0 mi WSW 12.7 mph - N/A   Overcast
11:20 AM 67.3 °F 54.7 °F 64% 29.68 in 10.0 mi WSW 12.7 mph - N/A   Overcast
11:38 AM 67.3 °F 55.4 °F 66% 29.67 in 10.0 mi SW 12.7 mph 18.4 mph N/A   Overcast
11:56 AM 67.3 °F 55.8 °F 66% 29.68 in 10.0 mi WSW 10.4 mph 18.4 mph N/A   Overcast
12:15 PM 67.5 °F 55.9 °F 66% 29.67 in 10.0 mi WSW 10.4 mph 18.4 mph N/A   Overcast
12:16 PM 67.5 °F 56.1 °F 67% 29.67 in 10.0 mi WSW 9.2 mph 18.4 mph N/A   Overcast
12:35 PM 69.1 °F 56.3 °F 64% 29.68 in 10.0 mi WSW 10.4 mph 18.4 mph N/A   Overcast
12:36 PM 69.1 °F 56.3 °F 64% 29.68 in 10.0 mi West 10.4 mph 18.4 mph N/A   Overcast
12:59 PM 70.0 °F 56.1 °F 61% 29.67 in 10.0 mi WSW 12.7 mph 18.4 mph N/A   Overcast
1:17 PM 71.8 °F 55.2 °F 56% 29.68 in 10.0 mi WSW 11.5 mph 18.4 mph N/A   Overcast
1:55 PM 72.1 °F 54.5 °F 54% 29.67 in 10.0 mi WSW 12.7 mph 24.2 mph N/A   Mostly Cloudy
1:56 PM 72.1 °F 54.5 °F 54% 29.67 in 10.0 mi WSW 13.8 mph 24.2 mph N/A   Mostly Cloudy
2:15 PM 72.7 °F 54.3 °F 52% 29.67 in 10.0 mi WSW 13.8 mph 20.7 mph N/A   Mostly Cloudy
2:20 PM 73.2 °F 54.3 °F 51% 29.67 in 10.0 mi WSW 13.8 mph 19.6 mph N/A   Mostly Cloudy
2:38 PM 73.8 °F 53.8 °F 50% 29.67 in 10.0 mi West 15.0 mph 24.2 mph N/A   Scattered Clouds
2:56 PM 74.3 °F 51.1 °F 44% 29.67 in 10.0 mi West 15.0 mph 23.0 mph N/A   Scattered Clouds
3:15 PM 73.9 °F 50.0 °F 43% 29.67 in 10.0 mi WSW 12.7 mph 25.3 mph N/A   Scattered Clouds
3:35 PM 75.7 °F 46.8 °F 36% 29.67 in 10.0 mi West 13.8 mph 24.2 mph N/A   Mostly Cloudy
3:36 PM 75.4 °F 46.9 °F 36% 29.67 in 10.0 mi WSW 10.4 mph 24.2 mph N/A   Mostly Cloudy
3:59 PM 74.5 °F 47.3 °F 38% 29.67 in 10.0 mi West 15.0 mph 23.0 mph N/A   Scattered Clouds
4:17 PM 74.7 °F 48.2 °F 39% 29.67 in 10.0 mi WSW 10.4 mph 21.9 mph N/A   Clear
4:35 PM 72.9 °F 50.2 °F 45% 29.67 in 10.0 mi West 8.1 mph 19.6 mph N/A   Mostly Cloudy
4:55 PM 74.5 °F 47.8 °F 39% 29.68 in 10.0 mi WSW 15.0 mph 23.0 mph N/A   Mostly Cloudy
5:15 PM 73.9 °F 47.7 °F 39% 29.68 in 10.0 mi WSW 12.7 mph 18.4 mph N/A   Mostly Cloudy
5:38 PM 72.0 °F 49.1 °F 44% 29.69 in 10.0 mi WSW 10.4 mph - N/A   Mostly Cloudy
5:56 PM 72.1 °F 51.3 °F 48% 29.70 in 10.0 mi West 10.4 mph 16.1 mph N/A   Mostly Cloudy
6:15 PM 70.7 °F 50.5 °F 49% 29.70 in 10.0 mi West 9.2 mph - N/A   Clear
6:35 PM 70.0 °F 50.7 °F 50% 29.71 in 10.0 mi West 5.8 mph - N/A   Scattered Clouds
6:59 PM 68.9 °F 50.9 °F 53% 29.72 in 10.0 mi West 3.5 mph - N/A   Clear
7:17 PM 68.0 °F 50.9 °F 54% 29.72 in 10.0 mi West 4.6 mph - N/A   Clear
7:35 PM 66.6 °F 52.2 °F 60% 29.73 in 10.0 mi West 4.6 mph - N/A   Clear
7:36 PM 66.6 °F 52.2 °F 60% 29.73 in 10.0 mi West 4.6 mph - N/A   Clear
7:55 PM 65.8 °F 51.8 °F 60% 29.73 in 10.0 mi West 3.5 mph - N/A   Clear
8:15 PM 65.7 °F 50.7 °F 58% 29.73 in 10.0 mi Calm Calm - N/A   Clear
8:38 PM 65.5 °F 50.0 °F 57% 29.74 in 10.0 mi Calm Calm - N/A   Scattered Clouds
8:56 PM 64.8 °F 50.5 °F 60% 29.74 in 10.0 mi Calm Calm - N/A   Clear
9:15 PM 64.4 °F 50.0 °F 59% 29.74 in 10.0 mi Calm Calm - N/A   Clear
9:16 PM 64.4 °F 50.0 °F 59% 29.74 in 10.0 mi Calm Calm - N/A   Clear
9:35 PM 64.0 °F 49.3 °F 59% 29.75 in 10.0 mi Calm Calm - N/A   Clear
9:36 PM 64.0 °F 49.5 °F 59% 29.75 in 10.0 mi Calm Calm - N/A   Clear
9:59 PM 63.9 °F 48.6 °F 57% 29.75 in 10.0 mi Calm Calm - N/A   Scattered Clouds
10:17 PM 63.7 °F 47.8 °F 56% 29.76 in 10.0 mi Calm Calm - N/A   Scattered Clouds
10:35 PM 63.5 °F 48.0 °F 57% 29.76 in 10.0 mi Calm Calm - N/A   Clear
10:55 PM 63.1 °F 46.9 °F 55% 29.77 in 10.0 mi West 3.5 mph - N/A   Scattered Clouds
10:56 PM 63.1 °F 46.8 °F 55% 29.77 in 10.0 mi West 3.5 mph - N/A   Scattered Clouds
11:15 PM 63.1 °F 46.4 °F 54% 29.77 in 10.0 mi SW 3.5 mph - N/A   Mostly Cloudy
11:20 PM 62.6 °F 46.8 °F 56% 29.77 in 10.0 mi WSW 3.5 mph - N/A   Overcast
11:38 PM 61.9 °F 48.4 °F 61% 29.78 in 10.0 mi NW 6.9 mph - N/A Rain Light Rain
11:56 PM 63.1 °F 43.7 °F 49% 29.78 in 10.0 mi West 5.8 mph - N/A   Overcast